NKS714 KRDU-KPHL

Flight info

Callsign NKS714
Flight time N/A
Altitude 35000
Route BEXGO5 BOUSY THHMP VIPKE HYTRA PAATS4
Aircraft A21N/M-SDE2E3FGHIRWXY/LB1

Departure

Time 2026-05-04 20:26
Airport Raleigh-Durham International Airport (KRDU)

Arrival

Time N/A
Airport Philadelphia International Airport (KPHL)
Time Latitude Longitude Altitude Speed Heading
2026-05-04 20:10 35.87553 -78.79663 415 ft 0 kts 134°
2026-05-04 20:17 35.87560 -78.79672 417 ft 2 kts 134°
2026-05-04 20:17 35.87572 -78.79687 415 ft 2 kts 134°
2026-05-04 20:17 35.87584 -78.79703 414 ft 3 kts 107°
2026-05-04 20:18 35.87582 -78.79724 415 ft 3 kts 45°
2026-05-04 20:18 35.87580 -78.79727 415 ft 0 kts 43°
2026-05-04 20:18 35.87581 -78.79725 415 ft 1 kts 43°
2026-05-04 20:19 35.87588 -78.79717 417 ft 2 kts 43°
2026-05-04 20:19 35.87602 -78.79702 423 ft 3 kts 43°
2026-05-04 20:19 35.87609 -78.79694 415 ft 0 kts 43°
2026-05-04 20:20 35.87620 -78.79685 426 ft 11 kts 29°
2026-05-04 20:20 35.87642 -78.79676 423 ft 0 kts 13°
2026-05-04 20:20 35.87677 -78.79667 428 ft 22 kts 11°
2026-05-04 20:20 35.87811 -78.79557 427 ft 23 kts 43°
2026-05-04 20:21 35.87925 -78.79416 425 ft 23 kts 46°
2026-05-04 20:21 35.88043 -78.79265 428 ft 26 kts 46°
2026-05-04 20:21 35.88316 -78.78930 424 ft 29 kts 45°
2026-05-04 20:22 35.88465 -78.78749 418 ft 30 kts 44°
2026-05-04 20:22 35.88613 -78.78569 426 ft 30 kts 45°
2026-05-04 20:22 35.88765 -78.78375 419 ft 38 kts 46°
2026-05-04 20:22 35.88991 -78.78096 420 ft 48 kts 45°
2026-05-04 20:23 35.89209 -78.77829 422 ft 26 kts 45°
2026-05-04 20:23 35.89292 -78.77754 424 ft 0 kts 10°
2026-05-04 20:24 35.89314 -78.77763 426 ft 3 kts 335°
2026-05-04 20:24 35.89322 -78.77768 425 ft 3 kts 335°
2026-05-04 20:24 35.89348 -78.77783 428 ft 5 kts 335°
2026-05-04 20:24 35.89364 -78.77818 422 ft 10 kts 282°
2026-05-04 20:25 35.89263 -78.77962 427 ft 36 kts 221°
2026-05-04 20:25 35.88881 -78.78428 421 ft 126 kts 225°
2026-05-04 20:25 35.88064 -78.79439 590 ft 195 kts 226°
2026-05-04 20:25 35.86994 -78.80773 949 ft 242 kts 225°
2026-05-04 20:26 35.85681 -78.82397 1262 ft 290 kts 225°
2026-05-04 20:26 35.84146 -78.84290 1552 ft 333 kts 225°
2026-05-04 20:26 35.82677 -78.86570 2305 ft 334 kts 240°
2026-05-04 20:26 35.82025 -78.89161 2906 ft 311 kts 268°
2026-05-04 20:27 35.82511 -78.91667 3984 ft 305 kts 300°
2026-05-04 20:27 35.83988 -78.93497 5586 ft 296 kts 330°